Meteo pe oră la Abay (Saryagashskiy rayon)

Astăzi, 24 Iulie, Sâmbătă

Timp Temperatura Precipitaţii Vânt Presiune Umiditate
00:00 +32°C° 0 mm 4 m/s 720 mmHg 17%
01:00 +30°C° 0 mm 4 m/s 720 mmHg 17%
02:00 +30°C° 0 mm 3 m/s 720 mmHg 17%
03:00 +29°C° 0 mm 3 m/s 720 mmHg 17%
04:00 +29°C° 0 mm 2 m/s 720 mmHg 17%
05:00 +29°C° 0 mm 2 m/s 721 mmHg 17%
06:00 +31°C° 0 mm 2 m/s 721 mmHg 15%
07:00 +35°C° 0 mm 2 m/s 722 mmHg 13%
08:00 +36°C° 0 mm 1 m/s 722 mmHg 11%
09:00 +39°C° 0 mm 2 m/s 722 mmHg 10%
10:00 +42°C° 0 mm 2 m/s 722 mmHg 9%
11:00 +45°C° 0 mm 3 m/s 722 mmHg 9%
12:00 +45°C° 0 mm 3 m/s 722 mmHg 8%
13:00 +47°C° 0 mm 4 m/s 721 mmHg 8%
14:00 +48°C° 0 mm 4 m/s 721 mmHg 8%
15:00 +48°C° 0 mm 4 m/s 721 mmHg 8%
16:00 +48°C° 0 mm 5 m/s 721 mmHg 8%
17:00 +48°C° 0 mm 5 m/s 721 mmHg 8%
18:00 +46°C° 0 mm 5 m/s 721 mmHg 9%
19:00 +42°C° 0 mm 5 m/s 721 mmHg 10%
20:00 +40°C° 0 mm 5 m/s 721 mmHg 12%
21:00 +37°C° 0 mm 5 m/s 721 mmHg 13%
22:00 +36°C° 0 mm 5 m/s 722 mmHg 13%
23:00 +35°C° 0 mm 5 m/s 722 mmHg 14%

Mâine, 25 Iulie, Duminică

Timp Temperatura Precipitaţii Vânt Presiune Umiditate
00:00 +34°C° 0 mm 4 m/s 722 mmHg 15%
01:00 +33°C° 0 mm 4 m/s 722 mmHg 15%
02:00 +33°C° 0 mm 4 m/s 721 mmHg 16%
03:00 +32°C° 0 mm 4 m/s 722 mmHg 17%
04:00 +30°C° 0 mm 3 m/s 722 mmHg 18%
05:00 +30°C° 0 mm 2 m/s 722 mmHg 19%
06:00 +32°C° 0 mm 2 m/s 722 mmHg 17%
07:00 +34°C° 0 mm 1 m/s 723 mmHg 15%
08:00 +36°C° 0 mm 1 m/s 724 mmHg 13%
09:00 +39°C° 0 mm 2 m/s 723 mmHg 11%
10:00 +42°C° 0 mm 2 m/s 723 mmHg 10%
11:00 +45°C° 0 mm 3 m/s 723 mmHg 8%
12:00 +46°C° 0 mm 3 m/s 723 mmHg 7%
13:00 +48°C° 0 mm 4 m/s 723 mmHg 7%
14:00 +49°C° 0 mm 4 m/s 722 mmHg 6%
15:00 +49°C° 0 mm 4 m/s 722 mmHg 5%
16:00 +49°C° 0 mm 4 m/s 722 mmHg 5%
17:00 +49°C° 0 mm 4 m/s 722 mmHg 5%
18:00 +47°C° 0 mm 4 m/s 722 mmHg 6%
19:00 +43°C° 0 mm 4 m/s 721 mmHg 7%
20:00 +41°C° 0 mm 4 m/s 721 mmHg 8%
21:00 +40°C° 0 mm 5 m/s 721 mmHg 10%
22:00 +39°C° 0 mm 6 m/s 722 mmHg 11%
23:00 +39°C° 0 mm 6 m/s 722 mmHg 12%

Poimâine, 26 Iulie, Luni

Timp Temperatura Precipitaţii Vânt Presiune Umiditate
00:00 +38°C° 0 mm 6 m/s 721 mmHg 13%
01:00 +36°C° 0 mm 6 m/s 721 mmHg 14%
02:00 +35°C° 0 mm 6 m/s 721 mmHg 14%
03:00 +34°C° 0 mm 6 m/s 721 mmHg 16%
04:00 +33°C° 0 mm 5 m/s 722 mmHg 17%
05:00 +32°C° 0 mm 4 m/s 722 mmHg 19%
06:00 +33°C° 0 mm 4 m/s 722 mmHg 17%
07:00 +34°C° 0 mm 4 m/s 723 mmHg 16%
08:00 +36°C° 0 mm 4 m/s 723 mmHg 15%
09:00 +38°C° 0 mm 4 m/s 723 mmHg 13%
10:00 +42°C° 0 mm 5 m/s 723 mmHg 11%
11:00 +46°C° 0 mm 5 m/s 723 mmHg 10%
12:00 +47°C° 0 mm 6 m/s 723 mmHg 9%
13:00 +48°C° 0 mm 6 m/s 722 mmHg 9%
14:00 +50°C° 0 mm 7 m/s 722 mmHg 8%
15:00 +50°C° 0 mm 7 m/s 721 mmHg 9%
16:00 +49°C° 0 mm 7 m/s 721 mmHg 9%
17:00 +49°C° 0 mm 8 m/s 721 mmHg 9%
18:00 +46°C° 0 mm 8 m/s 721 mmHg 12%
19:00 +44°C° 0 mm 8 m/s 721 mmHg 14%
20:00 +41°C° 0 mm 8 m/s 721 mmHg 17%
21:00 +40°C° 0 mm 8 m/s 721 mmHg 18%
22:00 +38°C° 0 mm 9 m/s 721 mmHg 20%
23:00 +37°C° 0 mm 9 m/s 721 mmHg 21%

27 Iulie, Marţi

Timp Temperatura Precipitaţii Vânt Presiune Umiditate
00:00 +35°C° 0 mm 9 m/s 721 mmHg 21%
01:00 +34°C° 0 mm 9 m/s 721 mmHg 22%
02:00 +33°C° 0 mm 8 m/s 720 mmHg 22%
03:00 +32°C° 0 mm 8 m/s 721 mmHg 22%
04:00 +30°C° 0 mm 7 m/s 721 mmHg 22%
05:00 +30°C° 0 mm 6 m/s 721 mmHg 22%
06:00 +30°C° 0 mm 6 m/s 721 mmHg 22%
07:00 +32°C° 0 mm 6 m/s 722 mmHg 21%
08:00 +33°C° 0 mm 6 m/s 722 mmHg 20%
09:00 +35°C° 0 mm 5 m/s 722 mmHg 18%
10:00 +39°C° 0 mm 5 m/s 722 mmHg 17%
11:00 +41°C° 0 mm 5 m/s 722 mmHg 15%
12:00 +42°C° 0 mm 6 m/s 721 mmHg 14%
13:00 +44°C° 0 mm 6 m/s 721 mmHg 13%
14:00 +46°C° 0 mm 7 m/s 720 mmHg 12%
15:00 +45°C° 0 mm 7 m/s 720 mmHg 12%
16:00 +45°C° 0 mm 8 m/s 719 mmHg 12%
17:00 +45°C° 0 mm 9 m/s 719 mmHg 12%
18:00 +43°C° 0 mm 9 m/s 719 mmHg 14%
19:00 +40°C° 0 mm 9 m/s 719 mmHg 16%
20:00 +38°C° 0 mm 9 m/s 719 mmHg 18%
21:00 +37°C° 0 mm 9 m/s 719 mmHg 17%
22:00 +35°C° 0 mm 9 m/s 719 mmHg 17%
23:00 +34°C° 0 mm 8 m/s 719 mmHg 17%

28 Iulie, Miercuri

Timp Temperatura Precipitaţii Vânt Presiune Umiditate
00:00 +33°C° 0 mm 8 m/s 719 mmHg 17%
01:00 +30°C° 0 mm 7 m/s 719 mmHg 18%
02:00 +29°C° 0 mm 6 m/s 719 mmHg 19%
03:00 +28°C° 0 mm 5 m/s 720 mmHg 21%
04:00 +27°C° 0 mm 4 m/s 720 mmHg 23%
05:00 +26°C° 0 mm 3 m/s 720 mmHg 25%
06:00 +27°C° 0 mm 3 m/s 720 mmHg 23%
07:00 +28°C° 0 mm 3 m/s 721 mmHg 22%
08:00 +30°C° 0 mm 3 m/s 721 mmHg 21%
09:00 +33°C° 0 mm 3 m/s 721 mmHg 19%
10:00 +35°C° 0 mm 3 m/s 721 mmHg 17%
11:00 +37°C° 0 mm 3 m/s 721 mmHg 16%
12:00 +39°C° 0 mm 3 m/s 721 mmHg 15%
13:00 +41°C° 0 mm 4 m/s 720 mmHg 13%
14:00 +42°C° 0 mm 4 m/s 720 mmHg 12%
15:00 +42°C° 0 mm 5 m/s 720 mmHg 12%
16:00 +42°C° 0 mm 6 m/s 720 mmHg 11%
17:00 +44°C° 0 mm 7 m/s 719 mmHg 11%
18:00 +40°C° 0 mm 7 m/s 720 mmHg 12%
19:00 +38°C° 0 mm 6 m/s 720 mmHg 14%
20:00 +35°C° 0 mm 6 m/s 720 mmHg 15%
21:00 +33°C° 0 mm 5 m/s 721 mmHg 17%
22:00 +32°C° 0 mm 5 m/s 721 mmHg 19%
23:00 +29°C° 0 mm 4 m/s 721 mmHg 21%

29 Iulie, Joi

Timp Temperatura Precipitaţii Vânt Presiune Umiditate
00:00 +28°C° 0 mm 4 m/s 721 mmHg 22%
01:00 +27°C° 0 mm 3 m/s 721 mmHg 23%
02:00 +26°C° 0 mm 3 m/s 721 mmHg 23%
03:00 +25°C° 0 mm 3 m/s 721 mmHg 24%
04:00 +24°C° 0 mm 3 m/s 722 mmHg 24%
05:00 +23°C° 0 mm 2 m/s 722 mmHg 24%
06:00 +25°C° 0 mm 2 m/s 723 mmHg 22%
07:00 +27°C° 0 mm 2 m/s 723 mmHg 19%
08:00 +28°C° 0 mm 2 m/s 724 mmHg 17%
09:00 +31°C° 0 mm 2 m/s 724 mmHg 15%
10:00 +34°C° 0 mm 3 m/s 724 mmHg 14%
11:00 +36°C° 0 mm 3 m/s 724 mmHg 12%
12:00 +37°C° 0 mm 4 m/s 723 mmHg 11%
13:00 +37°C° 0 mm 5 m/s 723 mmHg 10%
14:00 +39°C° 0 mm 6 m/s 723 mmHg 9%
15:00 +39°C° 0 mm 6 m/s 723 mmHg 9%
16:00 +39°C° 0 mm 6 m/s 723 mmHg 9%
17:00 +38°C° 0 mm 6 m/s 723 mmHg 9%
18:00 +35°C° 0 mm 6 m/s 723 mmHg 11%
19:00 +33°C° 0 mm 5 m/s 723 mmHg 12%
20:00 +30°C° 0 mm 4 m/s 724 mmHg 14%
21:00 +29°C° 0 mm 4 m/s 724 mmHg 15%
22:00 +28°C° 0 mm 3 m/s 724 mmHg 15%
23:00 +27°C° 0 mm 3 m/s 724 mmHg 16%
Arată mai mult

Formular de consimțământ

Meteoprog și furnizorii noștri de servicii pot stoca și accesa date personale, precum cookies, identificatori de dispozitiv sau alte tehnologii similare pe dispozitivul dumneavoastră și procesa astfel de date pentru a personaliza conținutul și reclamele, dar și pentru a oferi caracteristici de social media și pentru a analiza traficul.

  • Stocarea și/sau accesarea informațiilor pe dispozitivul dumneavoastră

    Cookies, identificatori de dispozitiv sau alte informații pot fi stocate sau accesate pe dispozitiv în scopurile indicate mai sus.

  • Reclame și conținut personalizat, evaluarea reclamelor și a conținutului, informații despre audiențe și dezvoltarea produselor

    Reclamele și conținutul pot fi personalizate pe baza unui profil. Pot fi adăugate date suplimentare pentru a personaliza mai bine reclamele și conținutul. Performanța reclamelor și conținutului poate fi măsurată. Pot fi obținute informații despre utilizatorii care au văzut reclamele și conținutul. Aceste date pot fi utilizate pentru a dezvolta sau îmbunătăți experiența utilizatorilor, sistemele și software-ul.

Dând clic pe ‘Sunt de acord’, permiteți utilizarea cookie-urilor menționate, a identificatorilor de dispozitiv, balizelor web sau altor tehnologii similare. Setările pot fi modificate din browser-ul dispozitivului dumneavoastră.

În anumite scopuri, interesele legitime pot prima asupra consimțământului. Puteți citi mai multe informații în acest sens în Politica privind Confidențialitatea Datelor și Cookie.